Flag for Czech Republic Weather past 2 weeks in Tábor, Czech Republic

Now
47 °F

Cool.


Feels Like: 46 °F
Forecast: 42 / 58 °F
Wind: 3 mph from Northwest

Location: Kocelovice

Current Time: Apr 22, 2015 at 3:53:28 AM

Latest Report: Apr 22, 2015 at 3:00 AM


Visibility: 13 mi

Pressure: 30.29 "Hg

Humidity: 49%

Dew point: 29 °F

Location of TáborLocation

Historic Weather in Tábor — Graph

°F

Tábor temperature yesterday

Maximum temperature yesterday: 66 °F (at 4:00 PM)
Minimum temperature yesterday: 37 °F (at 6:00 AM)
Average temperature yesterday: 53 °F

Past Weeks' High & Low Weather Summary

 TemperatureHumidityPressure
High70 °F (Apr 15, 4:00 PM)96% (Apr 11, 7:00 AM)30.63 "Hg (Apr 11, 7:00 AM)
Low27 °F (Apr 7, 7:00 AM)20% (Apr 21, 5:00 PM)29.83 "Hg (Apr 16, 7:00 PM)
Average48 °F60%30.25 "Hg
* Reported Apr 7 2:00 AM — Apr 22 2:00 AM, Tábor, Weather by CustomWeather, © 2015

Note: Actual official high and low records may vary slightly from our data, if they occured in-between our weather recording intervals... More about our weather records

Advertising

Tábor weather history for previous 24 hours

 ConditionsComfort  
Time TempWeatherWind HumidityBarometerVisibility
2:00 AM
Wed, Apr 22
47 °FCool.3 mph47%30.30 "Hg12 mi
1:00 AM47 °FCool.2 mph46%30.31 "Hg12 mi
12:00 AM49 °FCool.N/A42%30.30 "Hg12 mi
10:00 PM
Tue, Apr 21
55 °FClear.3 mph30%30.27 "Hg43 mi
9:00 PM58 °FPassing clouds.5 mph31%30.24 "Hg47 mi
8:00 PM60 °FPassing clouds.5 mph29%30.21 "Hg47 mi
7:00 PM63 °FPassing clouds.6 mph26%30.19 "Hg47 mi
6:00 PM65 °FPassing clouds.7 mph22%30.19 "Hg47 mi
5:00 PM65 °FPassing clouds.9 mph20%30.19 "Hg47 mi
4:00 PM66 °FPassing clouds.7 mph23%30.18 "Hg47 mi
3:00 PM65 °FPassing clouds.7 mph26%30.22 "Hg47 mi
2:00 PM63 °FPassing clouds.7 mph29%30.24 "Hg47 mi
1:00 PM60 °FPassing clouds.7 mph34%30.27 "Hg47 mi
12:00 PM57 °FPassing clouds.8 mph39%30.30 "Hg47 mi
11:00 AM53 °FPassing clouds.7 mph48%30.32 "Hg47 mi
10:00 AM51 °FPassing clouds.7 mph54%30.32 "Hg47 mi
9:00 AM47 °FPassing clouds.6 mph59%30.34 "Hg47 mi
8:00 AM44 °FPassing clouds.5 mph69%30.35 "Hg43 mi
7:00 AM40 °FQuite cool.3 mph73%30.37 "Hg12 mi
6:00 AM37 °FChilly.2 mph84%30.35 "Hg12 mi
4:00 AM42 °FQuite cool.2 mph67%30.33 "Hg12 mi
3:00 AM40 °FChilly.N/A75%30.33 "Hg12 mi
Weather by CustomWeather, © 2015

See weather overviewHow to use our weather pages